Terug naar catalogus

STARLINK-34124

ActiefCommunicatieVLEO
NORAD 64109·PAYLOAD·🇺🇸 United States

Gelanceerd May 23, 2025 vanaf Vandenberg Space Force Base

Loading…

Volgende Passages (komende 24 uur)

TLE

VersSource: CelesTrak SupGP

Epoch: Sep 14, 2026, 20:37 UTC

1 64109C 25110P   26257.85951389  .00042509  00000+0  13684-2 0  2579
2 64109  53.1591 226.5928 0001623  98.0048 357.3379 15.31646165    17

Volg STARLINK-34124 in realtime met AllMySat

Download on the App Store